GLO1498 SBEG-SBGR

Flight info

Callsign GLO1498
Flight time 3h 39m
Altitude 38000
Route ETAXA UZ87 OBLUG UZ42 ZARES
Aircraft B38M/L-L/2000

Departure

Time 2026-04-24 12:05
Airport Eduardo Gomes International Airport (SBEG)

Arrival

Time 2026-04-24 15:44
Airport São Paulo/Guarulhos–Governor André Franco Montoro International Airport (SBGR)
Time Latitude Longitude Altitude Speed Heading
2026-04-24 11:34 -3.03267 -60.04498 273 ft 0 kts 348°
2026-04-24 11:54 -3.03268 -60.04498 273 ft 1 kts 349°
2026-04-24 11:54 -3.03282 -60.04495 273 ft 2 kts 348°
2026-04-24 11:54 -3.03297 -60.04492 273 ft 2 kts 349°
2026-04-24 11:55 -3.03310 -60.04489 273 ft 0 kts 348°
2026-04-24 11:55 -3.03321 -60.04487 273 ft 2 kts 331°
2026-04-24 11:55 -3.03332 -60.04476 273 ft 2 kts 302°
2026-04-24 11:55 -3.03338 -60.04462 273 ft 2 kts 273°
2026-04-24 11:56 -3.03337 -60.04454 273 ft 1 kts 258°
2026-04-24 11:56 -3.03336 -60.04448 273 ft 0 kts 257°
2026-04-24 11:58 -3.03337 -60.04451 273 ft 1 kts 257°
2026-04-24 11:59 -3.03339 -60.04462 273 ft 1 kts 258°
2026-04-24 11:59 -3.03342 -60.04478 273 ft 2 kts 258°
2026-04-24 11:59 -3.03348 -60.04502 273 ft 3 kts 258°
2026-04-24 11:59 -3.03353 -60.04532 273 ft 5 kts 266°
2026-04-24 12:00 -3.03353 -60.04586 273 ft 10 kts 270°
2026-04-24 12:00 -3.03353 -60.04680 273 ft 15 kts 268°
2026-04-24 12:00 -3.03386 -60.04791 273 ft 18 kts 234°
2026-04-24 12:00 -3.03484 -60.04888 273 ft 22 kts 218°
2026-04-24 12:01 -3.03580 -60.05002 273 ft 19 kts 247°
2026-04-24 12:01 -3.03615 -60.05128 273 ft 18 kts 255°
2026-04-24 12:01 -3.03646 -60.05248 273 ft 18 kts 256°
2026-04-24 12:01 -3.03674 -60.05373 273 ft 18 kts 259°
2026-04-24 12:02 -3.03688 -60.05494 273 ft 16 kts 267°
2026-04-24 12:02 -3.03691 -60.05612 273 ft 17 kts 270°
2026-04-24 12:02 -3.03690 -60.05740 273 ft 19 kts 271°
2026-04-24 12:02 -3.03686 -60.05878 273 ft 20 kts 270°
2026-04-24 12:03 -3.03685 -60.06023 273 ft 21 kts 270°
2026-04-24 12:03 -3.03722 -60.06153 273 ft 17 kts 221°
2026-04-24 12:03 -3.03823 -60.06177 273 ft 13 kts 174°
2026-04-24 12:03 -3.03859 -60.06147 273 ft 0 kts 89°
2026-04-24 12:04 -3.03859 -60.06143 273 ft 6 kts 89°
2026-04-24 12:04 -3.03856 -60.05870 273 ft 77 kts 90°
2026-04-24 12:04 -3.03863 -60.05093 274 ft 143 kts 89°
2026-04-24 12:04 -3.03846 -60.03921 436 ft 181 kts 86°
2026-04-24 12:05 -3.03797 -60.02611 992 ft 195 kts 90°
2026-04-24 12:05 -3.03887 -60.01284 1717 ft 199 kts 95°
2026-04-24 12:05 -3.04061 -59.99802 1888 ft 227 kts 99°
2026-04-24 12:05 -3.04773 -59.98328 2076 ft 253 kts 135°
2026-04-24 12:06 -3.06216 -59.97306 2706 ft 262 kts 149°
2026-04-24 12:06 -3.07884 -59.96451 3193 ft 274 kts 152°
2026-04-24 12:06 -3.09539 -59.95556 4041 ft 272 kts 148°
2026-04-24 12:06 -3.11144 -59.94591 4862 ft 270 kts 147°
2026-04-24 12:07 -3.12770 -59.93570 5519 ft 275 kts 146°
2026-04-24 12:07 -3.14393 -59.92538 6260 ft 276 kts 146°
2026-04-24 12:07 -3.16028 -59.91495 6963 ft 279 kts 146°
2026-04-24 12:07 -3.17668 -59.90449 7679 ft 280 kts 146°
2026-04-24 12:08 -3.19342 -59.89381 8381 ft 283 kts 146°
2026-04-24 12:08 -3.21005 -59.88320 9075 ft 285 kts 146°
2026-04-24 12:08 -3.22684 -59.87248 9769 ft 287 kts 145°
2026-04-24 12:08 -3.24391 -59.86157 10445 ft 290 kts 145°
2026-04-24 12:09 -3.26150 -59.85031 10593 ft 312 kts 146°
2026-04-24 12:09 -3.28050 -59.83814 10801 ft 330 kts 146°
2026-04-24 12:09 -3.30004 -59.82565 11400 ft 334 kts 146°
2026-04-24 12:09 -3.31956 -59.81318 12017 ft 337 kts 146°
2026-04-24 12:10 -3.33933 -59.80053 12656 ft 340 kts 146°
2026-04-24 12:10 -3.35948 -59.78763 13295 ft 342 kts 146°
2026-04-24 12:10 -3.37939 -59.77488 13916 ft 345 kts 146°
2026-04-24 12:11 -3.42032 -59.74864 15166 ft 351 kts 146°
2026-04-24 12:11 -3.44077 -59.73552 15774 ft 354 kts 146°
2026-04-24 12:11 -3.46131 -59.72234 16356 ft 356 kts 146°
2026-04-24 12:11 -3.48245 -59.70876 16940 ft 359 kts 146°
2026-04-24 12:12 -3.50366 -59.69514 17495 ft 362 kts 147°
2026-04-24 12:12 -3.52488 -59.68150 18045 ft 365 kts 147°
2026-04-24 12:12 -3.54681 -59.66862 18576 ft 368 kts 150°
2026-04-24 12:12 -3.56930 -59.65646 19104 ft 371 kts 151°
2026-04-24 12:13 -3.59236 -59.64413 19619 ft 374 kts 151°
2026-04-24 12:13 -3.61522 -59.63188 20116 ft 377 kts 151°
2026-04-24 12:13 -3.63835 -59.61947 20604 ft 379 kts 152°
2026-04-24 12:13 -3.66151 -59.60703 21073 ft 382 kts 152°
2026-04-24 12:14 -3.68454 -59.59464 21523 ft 385 kts 152°
2026-04-24 12:14 -3.70812 -59.58196 21973 ft 387 kts 152°
2026-04-24 12:14 -3.73212 -59.56903 22408 ft 390 kts 152°
2026-04-24 12:14 -3.75664 -59.55584 22848 ft 392 kts 152°
2026-04-24 12:15 -3.77963 -59.54345 23240 ft 395 kts 152°
2026-04-24 12:15 -3.80425 -59.53019 23656 ft 397 kts 152°
2026-04-24 12:15 -3.82894 -59.51689 24060 ft 400 kts 152°
2026-04-24 12:15 -3.85333 -59.50375 24445 ft 403 kts 152°
2026-04-24 12:16 -3.87803 -59.49041 24829 ft 405 kts 152°
2026-04-24 12:16 -3.90294 -59.47677 25198 ft 407 kts 152°
2026-04-24 12:16 -3.92746 -59.46316 25560 ft 410 kts 151°
2026-04-24 12:16 -3.95264 -59.44906 25912 ft 412 kts 151°
2026-04-24 12:17 -3.97738 -59.43515 26256 ft 414 kts 151°
2026-04-24 12:17 -4.00260 -59.42098 26589 ft 417 kts 151°
2026-04-24 12:17 -4.02793 -59.40683 26922 ft 419 kts 152°
2026-04-24 12:17 -4.05338 -59.39271 27239 ft 421 kts 152°
2026-04-24 12:18 -4.07902 -59.37863 27557 ft 423 kts 152°
2026-04-24 12:18 -4.10489 -59.36469 27834 ft 426 kts 152°
2026-04-24 12:18 -4.13140 -59.35109 28020 ft 432 kts 153°
2026-04-24 12:18 -4.15815 -59.33741 28312 ft 434 kts 153°
2026-04-24 12:19 -4.18499 -59.32345 28602 ft 436 kts 152°
2026-04-24 12:19 -4.21187 -59.30931 28889 ft 438 kts 152°
2026-04-24 12:19 -4.23906 -59.29494 29176 ft 440 kts 152°
2026-04-24 12:19 -4.26601 -59.28063 29452 ft 442 kts 152°
2026-04-24 12:20 -4.29295 -59.26625 29723 ft 444 kts 152°
2026-04-24 12:20 -4.32003 -59.25176 29987 ft 446 kts 152°
2026-04-24 12:20 -4.34749 -59.23704 30247 ft 448 kts 152°
2026-04-24 12:20 -4.37472 -59.22242 30530 ft 449 kts 152°
2026-04-24 12:21 -4.40047 -59.20858 30844 ft 448 kts 152°
2026-04-24 12:21 -4.42929 -59.19307 31189 ft 448 kts 152°
2026-04-24 12:21 -4.45644 -59.17846 31522 ft 447 kts 152°
2026-04-24 12:21 -4.48390 -59.16367 31853 ft 446 kts 152°
2026-04-24 12:22 -4.51123 -59.14894 32176 ft 446 kts 152°
2026-04-24 12:22 -4.53831 -59.13435 32488 ft 445 kts 152°
2026-04-24 12:22 -4.56538 -59.11975 32796 ft 444 kts 152°
2026-04-24 12:22 -4.59271 -59.10501 33098 ft 444 kts 152°
2026-04-24 12:23 -4.62000 -59.09029 33393 ft 443 kts 152°
2026-04-24 12:23 -4.64689 -59.07578 33679 ft 443 kts 152°
2026-04-24 12:23 -4.67422 -59.06103 33964 ft 442 kts 152°
2026-04-24 12:23 -4.70094 -59.04661 34236 ft 441 kts 152°
2026-04-24 12:24 -4.72809 -59.03196 34506 ft 441 kts 152°
2026-04-24 12:24 -4.75494 -59.01747 34769 ft 440 kts 152°
2026-04-24 12:24 -4.78194 -59.00289 35028 ft 440 kts 152°
2026-04-24 12:24 -4.80865 -58.98847 35277 ft 439 kts 152°
2026-04-24 12:25 -4.83575 -58.97384 35525 ft 439 kts 152°
2026-04-24 12:25 -4.86241 -58.95943 35763 ft 438 kts 152°
2026-04-24 12:25 -4.88907 -58.94504 35973 ft 438 kts 152°
2026-04-24 12:26 -4.94310 -58.91586 35999 ft 439 kts 152°
2026-04-24 12:26 -4.99660 -58.88696 36000 ft 436 kts 152°
2026-04-24 12:27 -5.04978 -58.85822 36000 ft 436 kts 152°
2026-04-24 12:27 -5.10309 -58.82941 36000 ft 437 kts 152°
2026-04-24 12:28 -5.15656 -58.80051 35999 ft 437 kts 152°
2026-04-24 12:28 -5.20989 -58.77168 36000 ft 437 kts 152°
2026-04-24 12:29 -5.26303 -58.74294 36000 ft 437 kts 152°
2026-04-24 12:29 -5.31644 -58.71405 36000 ft 437 kts 152°
2026-04-24 12:30 -5.36982 -58.68518 36000 ft 437 kts 152°
2026-04-24 12:30 -5.42324 -58.65627 36000 ft 437 kts 152°
2026-04-24 12:31 -5.47620 -58.62761 36000 ft 437 kts 152°
2026-04-24 12:31 -5.52968 -58.59866 36000 ft 437 kts 152°
2026-04-24 12:32 -5.58295 -58.56982 36000 ft 437 kts 152°
2026-04-24 12:32 -5.63639 -58.54089 36000 ft 437 kts 152°
2026-04-24 12:33 -5.68943 -58.51216 36000 ft 437 kts 152°
2026-04-24 12:33 -5.74295 -58.48317 36000 ft 437 kts 152°
2026-04-24 12:34 -5.79455 -58.45521 36000 ft 437 kts 152°
2026-04-24 12:34 -5.84826 -58.42610 36000 ft 437 kts 152°
2026-04-24 12:35 -5.90131 -58.39734 36000 ft 437 kts 152°
2026-04-24 12:35 -5.95470 -58.36840 36000 ft 437 kts 152°
2026-04-24 12:36 -6.00818 -58.33939 36000 ft 437 kts 152°
2026-04-24 12:36 -6.06154 -58.31044 35999 ft 437 kts 152°
2026-04-24 12:37 -6.11501 -58.28144 36000 ft 437 kts 152°
2026-04-24 12:37 -6.16815 -58.25260 36000 ft 437 kts 152°
2026-04-24 12:38 -6.22189 -58.22342 35999 ft 437 kts 152°
2026-04-24 12:38 -6.27524 -58.19446 36000 ft 437 kts 152°
2026-04-24 12:39 -6.38172 -58.13663 35999 ft 437 kts 152°
2026-04-24 12:40 -6.43526 -58.10754 35999 ft 436 kts 152°
2026-04-24 12:40 -6.48893 -58.07837 36000 ft 435 kts 152°
2026-04-24 12:41 -6.54268 -58.04915 36000 ft 436 kts 152°
2026-04-24 12:41 -6.59577 -58.02029 36000 ft 436 kts 152°
2026-04-24 12:42 -6.64913 -57.99127 35999 ft 436 kts 152°
2026-04-24 12:42 -6.70227 -57.96236 36000 ft 436 kts 152°
2026-04-24 12:43 -6.75522 -57.93355 36000 ft 436 kts 152°
2026-04-24 12:43 -6.80846 -57.90458 36000 ft 436 kts 152°
2026-04-24 12:44 -6.86153 -57.87568 36000 ft 436 kts 152°
2026-04-24 12:44 -6.91462 -57.84678 36000 ft 436 kts 152°
2026-04-24 12:45 -6.96773 -57.81785 36000 ft 436 kts 152°
2026-04-24 12:45 -7.02109 -57.78878 36000 ft 436 kts 152°
2026-04-24 12:46 -7.07423 -57.75982 36000 ft 436 kts 152°
2026-04-24 12:46 -7.12782 -57.73061 36000 ft 436 kts 152°
2026-04-24 12:47 -7.18117 -57.70152 36000 ft 436 kts 152°
2026-04-24 12:47 -7.23429 -57.67255 36000 ft 436 kts 152°
2026-04-24 12:48 -7.28745 -57.64355 36000 ft 436 kts 152°
2026-04-24 12:48 -7.34044 -57.61463 36000 ft 436 kts 152°
2026-04-24 12:49 -7.39365 -57.58559 35999 ft 436 kts 152°
2026-04-24 12:49 -7.44700 -57.55647 36000 ft 436 kts 152°
2026-04-24 12:50 -7.50017 -57.52743 36000 ft 436 kts 152°
2026-04-24 12:50 -7.55348 -57.49831 35999 ft 436 kts 152°
2026-04-24 12:51 -7.60681 -57.46917 36000 ft 436 kts 152°
2026-04-24 12:51 -7.66022 -57.43998 36000 ft 436 kts 152°
2026-04-24 12:52 -7.71339 -57.41090 36000 ft 436 kts 152°
2026-04-24 12:52 -7.76706 -57.38155 36000 ft 436 kts 152°
2026-04-24 12:53 -7.82036 -57.35240 35999 ft 436 kts 152°
2026-04-24 12:53 -7.87342 -57.32336 36000 ft 436 kts 151°
2026-04-24 12:54 -7.92648 -57.29431 36000 ft 436 kts 151°
2026-04-24 12:54 -7.97981 -57.26512 35999 ft 436 kts 151°
2026-04-24 12:55 -8.03275 -57.23612 36000 ft 436 kts 151°
2026-04-24 12:55 -8.08582 -57.20704 36000 ft 436 kts 151°
2026-04-24 12:56 -8.13930 -57.17774 36000 ft 436 kts 151°
2026-04-24 12:56 -8.19249 -57.14858 36000 ft 436 kts 151°
2026-04-24 12:57 -8.24585 -57.11932 35999 ft 436 kts 151°
2026-04-24 12:57 -8.29896 -57.09019 36000 ft 436 kts 151°
2026-04-24 12:58 -8.35249 -57.06082 36000 ft 436 kts 151°
2026-04-24 12:58 -8.40627 -57.03130 35999 ft 436 kts 151°
2026-04-24 12:59 -8.45896 -57.00237 36000 ft 436 kts 151°
2026-04-24 12:59 -8.51268 -56.97287 36000 ft 436 kts 151°
2026-04-24 13:00 -8.56579 -56.94369 36000 ft 436 kts 151°
2026-04-24 13:00 -8.61823 -56.91488 36000 ft 436 kts 151°
2026-04-24 13:01 -8.67159 -56.88554 36000 ft 436 kts 151°
2026-04-24 13:01 -8.72480 -56.85628 36000 ft 436 kts 151°
2026-04-24 13:02 -8.77811 -56.82695 36000 ft 436 kts 151°
2026-04-24 13:02 -8.83110 -56.79779 35999 ft 436 kts 151°
2026-04-24 13:03 -8.88437 -56.76847 36000 ft 436 kts 151°
2026-04-24 13:03 -8.93771 -56.73910 36000 ft 436 kts 151°
2026-04-24 13:04 -8.99113 -56.70967 35999 ft 436 kts 151°
2026-04-24 13:04 -9.04456 -56.68023 35999 ft 436 kts 151°
2026-04-24 13:05 -9.09785 -56.65086 35999 ft 436 kts 151°
2026-04-24 13:05 -9.15127 -56.62141 36000 ft 436 kts 151°
2026-04-24 13:06 -9.20449 -56.59206 36000 ft 436 kts 151°
2026-04-24 13:06 -9.25793 -56.56257 36000 ft 436 kts 151°
2026-04-24 13:07 -9.31093 -56.53331 36000 ft 436 kts 151°
2026-04-24 13:07 -9.36388 -56.50408 36000 ft 436 kts 151°
2026-04-24 13:08 -9.41749 -56.47447 36000 ft 436 kts 151°
2026-04-24 13:08 -9.47017 -56.44536 35999 ft 436 kts 151°
2026-04-24 13:09 -9.55036 -56.40104 35999 ft 436 kts 151°
2026-04-24 13:09 -9.60352 -56.37164 35999 ft 436 kts 151°
2026-04-24 13:10 -9.65663 -56.34226 36000 ft 436 kts 151°
2026-04-24 13:10 -9.70949 -56.31300 36000 ft 436 kts 151°
2026-04-24 13:11 -9.76252 -56.28344 36000 ft 436 kts 151°
2026-04-24 13:11 -9.81580 -56.25363 35999 ft 436 kts 151°
2026-04-24 13:12 -9.86903 -56.22396 36000 ft 436 kts 151°
2026-04-24 13:12 -9.92221 -56.19439 36000 ft 436 kts 151°
2026-04-24 13:13 -9.97522 -56.16495 36000 ft 436 kts 151°
2026-04-24 13:13 -10.02855 -56.13533 36000 ft 436 kts 151°
2026-04-24 13:14 -10.08145 -56.10595 36000 ft 436 kts 151°
2026-04-24 13:14 -10.13461 -56.07642 36000 ft 436 kts 151°
2026-04-24 13:15 -10.18770 -56.04692 36000 ft 436 kts 151°
2026-04-24 13:15 -10.24032 -56.01768 36000 ft 436 kts 151°
2026-04-24 13:16 -10.29341 -55.98816 36000 ft 436 kts 151°
2026-04-24 13:16 -10.34642 -55.95868 36000 ft 436 kts 151°
2026-04-24 13:17 -10.39960 -55.92910 36000 ft 436 kts 151°
2026-04-24 13:17 -10.45262 -55.89959 36000 ft 436 kts 151°
2026-04-24 13:18 -10.50553 -55.87013 36000 ft 436 kts 151°
2026-04-24 13:18 -10.55872 -55.84050 36000 ft 436 kts 151°
2026-04-24 13:19 -10.61176 -55.81095 35999 ft 436 kts 151°
2026-04-24 13:19 -10.66448 -55.78156 35999 ft 436 kts 151°
2026-04-24 13:20 -10.71733 -55.75209 35999 ft 436 kts 151°
2026-04-24 13:20 -10.77062 -55.72237 35999 ft 436 kts 151°
2026-04-24 13:21 -10.82365 -55.69277 35999 ft 436 kts 151°
2026-04-24 13:21 -10.87663 -55.66319 35999 ft 436 kts 151°
2026-04-24 13:22 -10.92964 -55.63358 35999 ft 436 kts 151°
2026-04-24 13:22 -10.98269 -55.60394 35999 ft 436 kts 151°
2026-04-24 13:23 -11.03599 -55.57415 35999 ft 436 kts 151°
2026-04-24 13:23 -11.08883 -55.54459 35999 ft 436 kts 151°
2026-04-24 13:24 -11.14188 -55.51492 36000 ft 436 kts 151°
2026-04-24 13:24 -11.19497 -55.48520 36000 ft 436 kts 151°
2026-04-24 13:25 -11.24771 -55.45581 35999 ft 436 kts 153°
2026-04-24 13:25 -11.30245 -55.42894 36000 ft 436 kts 155°
2026-04-24 13:26 -11.35718 -55.40292 36000 ft 436 kts 155°
2026-04-24 13:26 -11.41176 -55.37702 36000 ft 436 kts 155°
2026-04-24 13:27 -11.46648 -55.35106 36000 ft 436 kts 155°
2026-04-24 13:27 -11.52153 -55.32493 36000 ft 436 kts 155°
2026-04-24 13:28 -11.57659 -55.29880 36000 ft 436 kts 155°
2026-04-24 13:28 -11.63191 -55.27253 36000 ft 436 kts 155°
2026-04-24 13:29 -11.68708 -55.24633 36000 ft 436 kts 155°
2026-04-24 13:29 -11.74157 -55.22030 35999 ft 436 kts 153°
2026-04-24 13:30 -11.79487 -55.19091 36000 ft 436 kts 151°
2026-04-24 13:30 -11.84784 -55.16077 35999 ft 436 kts 151°
2026-04-24 13:31 -11.90071 -55.13066 36000 ft 436 kts 151°
2026-04-24 13:31 -11.95340 -55.10065 36000 ft 436 kts 151°
2026-04-24 13:32 -12.00640 -55.07045 36000 ft 436 kts 151°
2026-04-24 13:32 -12.05901 -55.04047 36000 ft 436 kts 151°
2026-04-24 13:33 -12.11179 -55.01037 36000 ft 436 kts 151°
2026-04-24 13:33 -12.16475 -54.98016 36000 ft 436 kts 151°
2026-04-24 13:34 -12.21732 -54.95015 36000 ft 436 kts 151°
2026-04-24 13:34 -12.27054 -54.91977 35999 ft 436 kts 151°
2026-04-24 13:35 -12.32306 -54.88977 35999 ft 436 kts 151°
2026-04-24 13:35 -12.37622 -54.85939 36000 ft 436 kts 151°
2026-04-24 13:36 -12.42949 -54.82893 36000 ft 436 kts 151°
2026-04-24 13:36 -12.48213 -54.79890 36000 ft 436 kts 151°
2026-04-24 13:37 -12.53522 -54.76895 36000 ft 436 kts 151°
2026-04-24 13:37 -12.58808 -54.73916 35999 ft 436 kts 151°
2026-04-24 13:38 -12.64105 -54.70929 36000 ft 436 kts 151°
2026-04-24 13:38 -12.69424 -54.67930 35999 ft 436 kts 151°
2026-04-24 13:39 -12.74717 -54.64945 35999 ft 436 kts 151°
2026-04-24 13:39 -12.80010 -54.61959 35999 ft 436 kts 151°
2026-04-24 13:40 -12.85289 -54.58979 35999 ft 436 kts 151°
2026-04-24 13:40 -12.90587 -54.55990 35999 ft 436 kts 151°
2026-04-24 13:41 -12.95872 -54.53010 35999 ft 436 kts 151°
2026-04-24 13:41 -13.01162 -54.50027 35999 ft 436 kts 151°
2026-04-24 13:42 -13.06487 -54.47023 35999 ft 436 kts 151°
2026-04-24 13:42 -13.11760 -54.44047 36000 ft 436 kts 151°
2026-04-24 13:43 -13.17054 -54.41059 36000 ft 436 kts 151°
2026-04-24 13:43 -13.22381 -54.38049 36000 ft 436 kts 151°
2026-04-24 13:44 -13.27639 -54.35078 36000 ft 436 kts 151°
2026-04-24 13:44 -13.32959 -54.32070 36000 ft 436 kts 151°
2026-04-24 13:45 -13.38225 -54.29091 35999 ft 436 kts 151°
2026-04-24 13:45 -13.43512 -54.26099 36000 ft 436 kts 151°
2026-04-24 13:46 -13.48810 -54.23099 36000 ft 436 kts 151°
2026-04-24 13:46 -13.54107 -54.20098 36000 ft 436 kts 151°
2026-04-24 13:47 -13.59400 -54.17097 36000 ft 436 kts 151°
2026-04-24 13:47 -13.64725 -54.14077 36000 ft 436 kts 151°
2026-04-24 13:48 -13.70014 -54.11077 36000 ft 436 kts 151°
2026-04-24 13:48 -13.75282 -54.08086 36000 ft 436 kts 151°
2026-04-24 13:49 -13.80574 -54.05080 36000 ft 436 kts 151°
2026-04-24 13:49 -13.85864 -54.02073 36000 ft 436 kts 151°
2026-04-24 13:50 -13.91160 -53.99062 36000 ft 436 kts 151°
2026-04-24 13:50 -13.96440 -53.96058 36000 ft 436 kts 151°
2026-04-24 13:51 -14.01728 -53.93048 36000 ft 436 kts 151°
2026-04-24 13:51 -14.07026 -53.90031 35999 ft 436 kts 151°
2026-04-24 13:52 -14.12299 -53.87027 36000 ft 436 kts 151°
2026-04-24 13:52 -14.17618 -53.83994 36000 ft 436 kts 151°
2026-04-24 13:53 -14.22912 -53.80975 36000 ft 436 kts 151°
2026-04-24 13:53 -14.28194 -53.77960 36000 ft 436 kts 151°
2026-04-24 13:54 -14.33476 -53.74944 36000 ft 436 kts 151°
2026-04-24 13:54 -14.38737 -53.71938 36000 ft 436 kts 151°
2026-04-24 13:55 -14.44087 -53.68993 36000 ft 436 kts 153°
2026-04-24 13:55 -14.49480 -53.66186 36000 ft 436 kts 153°
2026-04-24 13:56 -14.54869 -53.63379 36000 ft 436 kts 153°
2026-04-24 13:56 -14.60212 -53.60426 36000 ft 436 kts 150°
2026-04-24 13:57 -14.65479 -53.57270 35999 ft 436 kts 150°
2026-04-24 13:57 -14.70715 -53.54144 35999 ft 436 kts 150°
2026-04-24 13:58 -14.75919 -53.51047 35999 ft 436 kts 150°
2026-04-24 13:58 -14.81158 -53.47936 35999 ft 436 kts 150°
2026-04-24 13:59 -14.86410 -53.44819 35999 ft 436 kts 150°
2026-04-24 13:59 -14.91638 -53.41716 35999 ft 436 kts 150°
2026-04-24 14:00 -14.96893 -53.38596 35999 ft 436 kts 150°
2026-04-24 14:00 -15.02138 -53.35484 35999 ft 436 kts 150°
2026-04-24 14:01 -15.07406 -53.32441 36000 ft 436 kts 151°
2026-04-24 14:01 -15.12687 -53.29407 35999 ft 436 kts 151°
2026-04-24 14:02 -15.17982 -53.26362 35999 ft 436 kts 151°
2026-04-24 14:02 -15.23257 -53.23325 35999 ft 436 kts 151°
2026-04-24 14:03 -15.28523 -53.20290 36000 ft 436 kts 151°
2026-04-24 14:03 -15.33783 -53.17257 36000 ft 436 kts 151°
2026-04-24 14:04 -15.39074 -53.14204 36000 ft 436 kts 151°
2026-04-24 14:04 -15.44340 -53.11163 36000 ft 436 kts 151°
2026-04-24 14:05 -15.49620 -53.08107 35999 ft 436 kts 150°
2026-04-24 14:05 -15.54916 -53.05033 35999 ft 436 kts 150°
2026-04-24 14:06 -15.60150 -53.01995 36000 ft 436 kts 150°
2026-04-24 14:06 -15.65453 -52.98918 36000 ft 436 kts 150°
2026-04-24 14:07 -15.70695 -52.95874 36000 ft 436 kts 150°
2026-04-24 14:07 -15.75964 -52.92814 36000 ft 436 kts 150°
2026-04-24 14:08 -15.81243 -52.89747 36000 ft 436 kts 150°
2026-04-24 14:08 -15.86505 -52.86688 35999 ft 436 kts 150°
2026-04-24 14:09 -15.91772 -52.83624 35999 ft 436 kts 150°
2026-04-24 14:09 -15.97041 -52.80557 35999 ft 436 kts 150°
2026-04-24 14:10 -16.02319 -52.77483 35999 ft 436 kts 150°
2026-04-24 14:10 -16.07587 -52.74413 35999 ft 436 kts 150°
2026-04-24 14:11 -16.12867 -52.71334 36000 ft 436 kts 150°
2026-04-24 14:12 -16.20756 -52.66730 36000 ft 436 kts 150°
2026-04-24 14:12 -16.26036 -52.63647 36000 ft 436 kts 150°
2026-04-24 14:13 -16.31281 -52.60582 36000 ft 436 kts 150°
2026-04-24 14:13 -16.36565 -52.57492 36000 ft 436 kts 150°
2026-04-24 14:14 -16.41822 -52.54416 35999 ft 436 kts 150°
2026-04-24 14:14 -16.49725 -52.49789 36000 ft 436 kts 150°
2026-04-24 14:15 -16.54987 -52.46705 36000 ft 436 kts 150°
2026-04-24 14:15 -16.60249 -52.43619 35999 ft 436 kts 150°
2026-04-24 14:16 -16.65510 -52.40532 35999 ft 436 kts 150°
2026-04-24 14:17 -16.73383 -52.35897 35999 ft 436 kts 150°
2026-04-24 14:17 -16.81282 -52.31254 36000 ft 436 kts 150°
2026-04-24 14:18 -16.86558 -52.28154 36000 ft 436 kts 150°
2026-04-24 14:18 -16.91836 -52.25054 36000 ft 436 kts 150°
2026-04-24 14:19 -16.97101 -52.21959 36000 ft 436 kts 150°
2026-04-24 14:19 -17.02335 -52.18882 36000 ft 436 kts 150°
2026-04-24 14:20 -17.07637 -52.15771 36000 ft 436 kts 151°
2026-04-24 14:20 -17.12909 -52.12719 35999 ft 436 kts 151°
2026-04-24 14:21 -17.18170 -52.09676 36000 ft 436 kts 151°
2026-04-24 14:21 -17.23489 -52.06597 36000 ft 436 kts 151°
2026-04-24 14:22 -17.28768 -52.03539 35999 ft 436 kts 151°
2026-04-24 14:23 -17.36676 -51.98955 36000 ft 436 kts 151°
2026-04-24 14:23 -17.41961 -51.95888 36000 ft 436 kts 151°
2026-04-24 14:24 -17.47253 -51.92815 36000 ft 436 kts 151°
2026-04-24 14:24 -17.52529 -51.89749 35999 ft 436 kts 151°
2026-04-24 14:25 -17.57809 -51.86680 36000 ft 436 kts 151°
2026-04-24 14:25 -17.63074 -51.83616 36000 ft 436 kts 151°
2026-04-24 14:26 -17.68371 -51.80533 36000 ft 436 kts 151°
2026-04-24 14:26 -17.73675 -51.77443 36000 ft 436 kts 151°
2026-04-24 14:27 -17.78956 -51.74363 35999 ft 436 kts 151°
2026-04-24 14:27 -17.84219 -51.71293 35999 ft 436 kts 151°
2026-04-24 14:28 -17.89501 -51.68210 35999 ft 436 kts 151°
2026-04-24 14:28 -17.94802 -51.65113 35999 ft 436 kts 151°
2026-04-24 14:29 -18.00088 -51.62023 35999 ft 436 kts 151°
2026-04-24 14:29 -18.05381 -51.58926 35999 ft 436 kts 151°
2026-04-24 14:30 -18.09752 -51.56368 35999 ft 436 kts 151°
2026-04-24 14:30 -18.15955 -51.52734 36000 ft 436 kts 151°
2026-04-24 14:31 -18.21247 -51.49632 36000 ft 436 kts 151°
2026-04-24 14:31 -18.26507 -51.46545 36000 ft 436 kts 150°
2026-04-24 14:32 -18.31723 -51.43320 36000 ft 436 kts 149°
2026-04-24 14:32 -18.36926 -51.40071 36000 ft 436 kts 149°
2026-04-24 14:33 -18.42132 -51.36833 36000 ft 436 kts 149°
2026-04-24 14:33 -18.47344 -51.33595 36000 ft 436 kts 149°
2026-04-24 14:34 -18.52538 -51.30370 36000 ft 436 kts 149°
2026-04-24 14:34 -18.57826 -51.27085 36001 ft 446 kts 149°
2026-04-24 14:35 -18.63197 -51.23749 36000 ft 454 kts 149°
2026-04-24 14:35 -18.68664 -51.20352 35999 ft 461 kts 149°
2026-04-24 14:36 -18.74196 -51.16914 35998 ft 459 kts 149°
2026-04-24 14:36 -18.79684 -51.13502 35999 ft 458 kts 149°
2026-04-24 14:37 -18.85144 -51.10104 36000 ft 459 kts 149°
2026-04-24 14:37 -18.90673 -51.06661 36000 ft 459 kts 149°
2026-04-24 14:38 -18.96174 -51.03233 35999 ft 459 kts 149°
2026-04-24 14:38 -19.01652 -50.99816 36000 ft 459 kts 149°
2026-04-24 14:39 -19.07085 -50.96278 36000 ft 459 kts 148°
2026-04-24 14:39 -19.12489 -50.92721 35999 ft 459 kts 148°
2026-04-24 14:40 -19.17914 -50.89158 35999 ft 459 kts 148°
2026-04-24 14:40 -19.23312 -50.85615 36000 ft 459 kts 148°
2026-04-24 14:41 -19.28707 -50.82074 36000 ft 459 kts 148°
2026-04-24 14:41 -19.34079 -50.78549 36000 ft 459 kts 148°
2026-04-24 14:42 -19.39440 -50.75028 36000 ft 459 kts 148°
2026-04-24 14:42 -19.44883 -50.71452 36000 ft 459 kts 148°
2026-04-24 14:43 -19.50346 -50.67860 36000 ft 459 kts 148°
2026-04-24 14:43 -19.55777 -50.64286 35996 ft 454 kts 148°
2026-04-24 14:43 -19.58434 -50.62537 35994 ft 438 kts 148°
2026-04-24 14:44 -19.60962 -50.60871 35998 ft 420 kts 148°
2026-04-24 14:44 -19.65892 -50.57621 36004 ft 418 kts 148°
2026-04-24 14:45 -19.70911 -50.54356 36002 ft 429 kts 149°
2026-04-24 14:45 -19.76055 -50.51037 35999 ft 437 kts 149°
2026-04-24 14:46 -19.81187 -50.47725 35998 ft 434 kts 149°
2026-04-24 14:46 -19.86370 -50.44378 36002 ft 438 kts 149°
2026-04-24 14:47 -19.91609 -50.40992 36000 ft 448 kts 149°
2026-04-24 14:47 -19.96960 -50.37531 35999 ft 456 kts 149°
2026-04-24 14:48 -20.02445 -50.33981 35999 ft 461 kts 148°
2026-04-24 14:48 -20.07880 -50.30461 35999 ft 459 kts 148°
2026-04-24 14:49 -20.13327 -50.26967 35999 ft 458 kts 150°
2026-04-24 14:49 -20.18884 -50.23680 36000 ft 459 kts 151°
2026-04-24 14:50 -20.24464 -50.20396 35999 ft 459 kts 151°
2026-04-24 14:50 -20.30035 -50.17106 35999 ft 459 kts 151°
2026-04-24 14:51 -20.35642 -50.13785 36000 ft 459 kts 151°
2026-04-24 14:51 -20.41225 -50.10473 35999 ft 459 kts 151°
2026-04-24 14:52 -20.46840 -50.07137 36000 ft 459 kts 151°
2026-04-24 14:52 -20.52519 -50.03759 36000 ft 459 kts 151°
2026-04-24 14:53 -20.58075 -50.00451 35999 ft 459 kts 151°
2026-04-24 14:53 -20.63664 -49.97120 36000 ft 459 kts 151°
2026-04-24 14:54 -20.69222 -49.93805 36000 ft 459 kts 151°
2026-04-24 14:54 -20.74777 -49.90488 35999 ft 459 kts 151°
2026-04-24 14:55 -20.79411 -49.87719 36000 ft 459 kts 151°
2026-04-24 14:55 -20.85890 -49.83845 35999 ft 459 kts 151°
2026-04-24 14:56 -20.91435 -49.80526 35999 ft 459 kts 151°
2026-04-24 14:56 -20.96969 -49.77210 35999 ft 459 kts 151°
2026-04-24 14:57 -21.02546 -49.73867 35999 ft 459 kts 151°
2026-04-24 14:57 -21.08096 -49.70536 35999 ft 459 kts 151°
2026-04-24 14:58 -21.13612 -49.67223 36000 ft 459 kts 151°
2026-04-24 14:58 -21.19194 -49.63867 35999 ft 459 kts 151°
2026-04-24 14:59 -21.24743 -49.60529 36000 ft 459 kts 151°
2026-04-24 14:59 -21.30288 -49.57190 36000 ft 459 kts 151°
2026-04-24 15:00 -21.35844 -49.53841 36000 ft 459 kts 151°
2026-04-24 15:00 -21.41375 -49.50504 35999 ft 459 kts 151°
2026-04-24 15:01 -21.46938 -49.47145 36000 ft 459 kts 151°
2026-04-24 15:01 -21.52461 -49.43808 36000 ft 459 kts 151°
2026-04-24 15:02 -21.58009 -49.40453 36000 ft 459 kts 151°
2026-04-24 15:02 -21.63576 -49.37082 35999 ft 459 kts 151°
2026-04-24 15:03 -21.69129 -49.33718 36000 ft 459 kts 150°
2026-04-24 15:03 -21.74649 -49.30370 36000 ft 459 kts 150°
2026-04-24 15:04 -21.80193 -49.27005 36000 ft 459 kts 150°
2026-04-24 15:04 -21.85746 -49.23631 36000 ft 459 kts 150°
2026-04-24 15:05 -21.91281 -49.20266 35999 ft 459 kts 150°
2026-04-24 15:05 -21.96834 -49.16886 36000 ft 459 kts 150°
2026-04-24 15:06 -22.02357 -49.13511 35999 ft 459 kts 148°
2026-04-24 15:06 -22.07549 -49.09529 36000 ft 459 kts 142°
2026-04-24 15:07 -22.12431 -49.05154 35999 ft 459 kts 136°
2026-04-24 15:07 -22.16820 -49.00161 36000 ft 459 kts 132°
2026-04-24 15:08 -22.21047 -48.95049 36000 ft 459 kts 131°
2026-04-24 15:08 -22.25271 -48.89905 36000 ft 459 kts 131°
2026-04-24 15:09 -22.29522 -48.84725 35999 ft 459 kts 131°
2026-04-24 15:09 -22.33743 -48.79567 36000 ft 459 kts 131°
2026-04-24 15:10 -22.37928 -48.74421 36000 ft 459 kts 131°
2026-04-24 15:10 -22.42147 -48.69227 36000 ft 459 kts 131°
2026-04-24 15:11 -22.46341 -48.64059 36000 ft 459 kts 131°
2026-04-24 15:11 -22.50540 -48.58880 36000 ft 459 kts 131°
2026-04-24 15:12 -22.54719 -48.53666 35998 ft 459 kts 128°
2026-04-24 15:12 -22.60070 -48.45132 35999 ft 459 kts 120°
2026-04-24 15:13 -22.62914 -48.38949 36000 ft 459 kts 113°
2026-04-24 15:13 -22.64083 -48.35782 35811 ft 454 kts 110°
2026-04-24 15:13 -22.65130 -48.32644 35231 ft 448 kts 109°
2026-04-24 15:14 -22.66153 -48.29491 34706 ft 440 kts 109°
2026-04-24 15:14 -22.67151 -48.26392 34196 ft 433 kts 109°
2026-04-24 15:14 -22.68127 -48.23349 33692 ft 426 kts 109°
2026-04-24 15:14 -22.69086 -48.20348 33194 ft 420 kts 109°
2026-04-24 15:15 -22.70009 -48.17456 32713 ft 414 kts 109°
2026-04-24 15:15 -22.70920 -48.14591 32235 ft 408 kts 109°
2026-04-24 15:15 -22.71790 -48.11852 31779 ft 402 kts 109°
2026-04-24 15:15 -22.72722 -48.08911 31288 ft 397 kts 109°
2026-04-24 15:16 -22.73605 -48.06123 30822 ft 391 kts 109°
2026-04-24 15:16 -22.74466 -48.03337 30355 ft 386 kts 107°
2026-04-24 15:16 -22.75243 -48.00595 29898 ft 381 kts 107°
2026-04-24 15:16 -22.76052 -47.97890 29441 ft 377 kts 111°
2026-04-24 15:17 -22.77065 -47.95267 28986 ft 372 kts 114°
2026-04-24 15:17 -22.78149 -47.92761 28549 ft 374 kts 116°
2026-04-24 15:17 -22.79305 -47.90217 28093 ft 375 kts 116°
2026-04-24 15:17 -22.80478 -47.87699 27634 ft 370 kts 117°
2026-04-24 15:18 -22.81632 -47.85250 27192 ft 366 kts 117°
2026-04-24 15:18 -22.82794 -47.82805 27001 ft 361 kts 117°
2026-04-24 15:18 -22.83942 -47.80396 27007 ft 367 kts 117°
2026-04-24 15:18 -22.85092 -47.77994 26998 ft 372 kts 117°
2026-04-24 15:19 -22.86283 -47.75510 26998 ft 371 kts 117°
2026-04-24 15:19 -22.87478 -47.73022 26998 ft 369 kts 117°
2026-04-24 15:19 -22.88655 -47.70576 26999 ft 368 kts 117°
2026-04-24 15:19 -22.89836 -47.68120 26999 ft 369 kts 117°
2026-04-24 15:20 -22.91019 -47.65661 27000 ft 369 kts 117°
2026-04-24 15:20 -22.92213 -47.63179 26999 ft 370 kts 117°
2026-04-24 15:20 -22.93401 -47.60710 26900 ft 366 kts 117°
2026-04-24 15:20 -22.94566 -47.58287 26497 ft 360 kts 117°
2026-04-24 15:21 -22.95717 -47.55892 26071 ft 356 kts 117°
2026-04-24 15:21 -22.96855 -47.53523 25645 ft 355 kts 117°
2026-04-24 15:21 -22.98007 -47.51124 25215 ft 359 kts 117°
2026-04-24 15:21 -22.99155 -47.48734 24771 ft 355 kts 117°
2026-04-24 15:22 -23.00284 -47.46378 24342 ft 350 kts 117°
2026-04-24 15:22 -23.01410 -47.44019 23916 ft 346 kts 117°
2026-04-24 15:22 -23.02500 -47.41739 23502 ft 342 kts 117°
2026-04-24 15:23 -23.04695 -47.37146 23001 ft 342 kts 117°
2026-04-24 15:23 -23.06910 -47.32511 22998 ft 348 kts 117°
2026-04-24 15:23 -23.08017 -47.30195 22998 ft 347 kts 117°
2026-04-24 15:24 -23.11257 -47.23367 22104 ft 337 kts 113°
2026-04-24 15:25 -23.12180 -47.19246 21295 ft 338 kts 92°
2026-04-24 15:25 -23.11127 -47.13518 20201 ft 332 kts 63°
2026-04-24 15:26 -23.06914 -47.07717 18997 ft 321 kts 47°
2026-04-24 15:27 -23.02291 -47.02351 17277 ft 316 kts 47°
2026-04-24 15:27 -22.97885 -46.97180 16121 ft 306 kts 47°
2026-04-24 15:28 -22.92145 -46.90439 14492 ft 298 kts 47°
2026-04-24 15:29 -22.89373 -46.87056 13937 ft 294 kts 59°
2026-04-24 15:30 -22.90514 -46.81020 13550 ft 296 kts 134°
2026-04-24 15:31 -22.96831 -46.75589 12545 ft 288 kts 142°
2026-04-24 15:32 -23.03076 -46.70252 11542 ft 284 kts 142°
2026-04-24 15:33 -23.09221 -46.64978 10539 ft 280 kts 142°
2026-04-24 15:33 -23.13787 -46.61054 9784 ft 276 kts 142°
2026-04-24 15:34 -23.16802 -46.58461 9280 ft 274 kts 142°
2026-04-24 15:35 -23.21910 -46.56694 8854 ft 252 kts 186°
2026-04-24 15:35 -23.25270 -46.58015 8243 ft 261 kts 212°
2026-04-24 15:35 -23.26780 -46.59100 7934 ft 258 kts 214°
2026-04-24 15:36 -23.28235 -46.60183 7781 ft 245 kts 214°
2026-04-24 15:36 -23.30924 -46.62128 7404 ft 219 kts 213°
2026-04-24 15:36 -23.32168 -46.63014 7158 ft 208 kts 213°
2026-04-24 15:37 -23.33370 -46.63868 6900 ft 199 kts 213°
2026-04-24 15:37 -23.34496 -46.64668 6681 ft 190 kts 213°
2026-04-24 15:37 -23.35564 -46.65427 6487 ft 179 kts 213°
2026-04-24 15:37 -23.36588 -46.66155 6415 ft 174 kts 213°
2026-04-24 15:38 -23.37596 -46.66872 6336 ft 178 kts 213°
2026-04-24 15:38 -23.38632 -46.67608 6218 ft 177 kts 213°
2026-04-24 15:38 -23.39657 -46.68337 6113 ft 176 kts 213°
2026-04-24 15:38 -23.40728 -46.68970 6001 ft 176 kts 199°
2026-04-24 15:39 -23.41929 -46.69196 5865 ft 176 kts 178°
2026-04-24 15:39 -23.43118 -46.68919 5701 ft 175 kts 156°
2026-04-24 15:39 -23.44100 -46.68191 5296 ft 165 kts 134°
2026-04-24 15:39 -23.44785 -46.67247 4950 ft 153 kts 124°
2026-04-24 15:40 -23.45347 -46.66297 4904 ft 148 kts 123°
2026-04-24 15:40 -23.45936 -46.65318 4729 ft 160 kts 124°
2026-04-24 15:40 -23.46548 -46.64337 4416 ft 150 kts 123°
2026-04-24 15:40 -23.47015 -46.63320 4396 ft 151 kts 109°
2026-04-24 15:41 -23.47263 -46.62196 4310 ft 155 kts 95°
2026-04-24 15:41 -23.47177 -46.61040 4296 ft 149 kts 78°
2026-04-24 15:41 -23.46911 -46.59935 4339 ft 154 kts 74°
2026-04-24 15:41 -23.46609 -46.58818 4289 ft 152 kts 73°
2026-04-24 15:42 -23.46309 -46.57712 4171 ft 156 kts 73°
2026-04-24 15:42 -23.46005 -46.56589 3951 ft 151 kts 73°
2026-04-24 15:42 -23.45710 -46.55491 3760 ft 151 kts 74°
2026-04-24 15:42 -23.45415 -46.54392 3557 ft 151 kts 73°
2026-04-24 15:43 -23.45120 -46.53301 3354 ft 150 kts 73°
2026-04-24 15:43 -23.44824 -46.52203 3151 ft 150 kts 73°
2026-04-24 15:43 -23.44532 -46.51118 2948 ft 147 kts 74°
2026-04-24 15:43 -23.44237 -46.50050 2728 ft 148 kts 73°
2026-04-24 15:44 -23.43949 -46.48978 2536 ft 146 kts 74°
2026-04-24 15:44 -23.43675 -46.47959 2469 ft 117 kts 75°
2026-04-24 15:44 -23.43504 -46.47309 2468 ft 65 kts 74°
2026-04-24 15:44 -23.43396 -46.46990 2464 ft 26 kts 60°
2026-04-24 15:45 -23.43356 -46.46928 2461 ft 2 kts 50°
2026-04-24 15:45 -23.43325 -46.46890 2460 ft 7 kts 46°
2026-04-24 15:45 -23.43278 -46.46840 2458 ft 11 kts 45°
2026-04-24 15:45 -23.43209 -46.46767 2454 ft 15 kts 44°
2026-04-24 15:46 -23.43126 -46.46718 2453 ft 13 kts 356°
2026-04-24 15:46 -23.43025 -46.46737 2449 ft 16 kts 345°
2026-04-24 15:46 -23.42906 -46.46775 2445 ft 19 kts 343°
2026-04-24 15:46 -23.42794 -46.46816 2444 ft 14 kts 321°
2026-04-24 15:47 -23.42786 -46.46919 2443 ft 14 kts 255°
2026-04-24 15:47 -23.42817 -46.47029 2443 ft 15 kts 252°
2026-04-24 15:47 -23.42849 -46.47148 2444 ft 15 kts 253°
2026-04-24 15:47 -23.42880 -46.47257 2445 ft 15 kts 255°
2026-04-24 15:48 -23.42909 -46.47374 2445 ft 16 kts 255°
2026-04-24 15:48 -23.42895 -46.47477 2445 ft 13 kts 333°
2026-04-24 15:48 -23.42873 -46.47549 2445 ft 11 kts 255°
2026-04-24 15:48 -23.42898 -46.47646 2445 ft 14 kts 254°
2026-04-24 15:49 -23.42929 -46.47764 2447 ft 16 kts 256°
2026-04-24 15:49 -23.42869 -46.47842 2447 ft 15 kts 350°
2026-04-24 15:49 -23.42770 -46.47842 2447 ft 11 kts 52°
2026-04-24 15:49 -23.42751 -46.47769 2446 ft 6 kts 74°
2026-04-24 15:50 -23.42750 -46.47764 2446 ft 0 kts 74°